星链-32223 (STARLINK-32223)

导读 | 星芒AI

STARLINK-32223 是 SpaceX 星链计划中的一颗低轨通信卫星,属于第 6 批星链卫星群。该卫星于 2023 年发射,旨在为全球提供高速互联网服务。它运行在约 550 公里的轨道高度,采用先进的推进和通信技术,支持宽带数据传输。星链项目通过部署大量此类卫星,构建覆盖全球的卫星互联网网络,尤其服务于偏远地区。STARLINK-32223 在提升网络覆盖率和连接质量方面发挥着重要作用。

基本信息
目录编号:
60373
目录名称:
STARLINK-32223
国际标识:
2024-138U
轨道中心:
EARTH
卫星名称:
星链-32223 (STARLINK-32223)
卫星全名:
星链-32223 (STARLINK-32223)
卫星状态:
在轨 (已飞行503 天)
发射日期:
2024-08-04 UTC
国别 :
美国 (US)
星等 :
--
轨道信息
数据来源 国际轨道数据 AOE轨道数据
星历时间 2025-12-20T06:07:06+0800
10小时前
查看轨道信息
2025-12-15T20:00:00+0800
4天前
查看轨道信息
半长轴 6853.374km 6853.303km
偏心率 0.0002169 0.0002195
轨道倾角 53.161° 53.161°
近地点辐角 91.035° 86.445°
升交点赤经 320.195° 340.739°
平近点角 269.090° 22.801°
近地点 473.75km 473.663km
远地点 476.724km 476.673km
周期 94.106分钟 94.104分钟
每日圈数 15.301929 15.302166
详细信息
卫星平台:
Starlink v2.0 mini
运营商:
太空探索技术公司
运营商所在国:
美国
制造商(研发单位):
太空探索技术公司
制造商所在国:
美国
使用方式:
暂无
卫星简介
星链(Starlink)计划是由太空探索技术公司(SpaceX)提出的一个巨型低轨卫星互联网星座项目,计划在2019年至2024年间在太空搭建由约1.2万颗卫星组成的“星链”网络,其中1584颗将部署在地球上空550千米处的近地轨道,并从2020年开始工作。该卫星仍在工作。
2D轨道图
3D轨道图
轨道高度分析图
轨道倾角分析图
轨道综合分析图
查看轨道综合分析图